TimeEST,TemperatureF,Dew PointF,Humidity,Sea Level PressureIn,VisibilityMPH,Wind Direction,Wind SpeedMPH,Gust SpeedMPH,PrecipitationIn,Events,Conditions,WindDirDegrees,DateUTC
12:51 AM,34.0,28.9,82,30.23,8.0,NE,3.5,-,N/A,,Overcast,50,2014-01-05 05:51:00
1:51 AM,34.0,28.9,82,30.22,5.0,NE,4.6,-,0.00,Rain,Light Rain,50,2014-01-05 06:51:00
2:48 AM,33.8,30.2,87,30.18,5.0,ENE,5.8,-,0.00,,Overcast,60,2014-01-05 07:48:00
2:51 AM,33.1,30.0,89,30.20,5.0,ENE,6.9,-,0.00,,Overcast,60,2014-01-05 07:51:00
3:51 AM,34.0,30.9,89,30.18,4.0,NE,6.9,-,N/A,,Overcast,50,2014-01-05 08:51:00
4:51 AM,34.0,30.9,89,30.16,4.0,NE,5.8,-,0.00,,Overcast,50,2014-01-05 09:51:00
5:16 AM,33.8,32.0,93,30.14,3.0,East,3.5,-,0.00,Rain,Light Rain,80,2014-01-05 10:16:00
5:30 AM,33.8,32.0,93,30.14,2.5,ENE,3.5,-,0.00,Rain,Light Rain,70,2014-01-05 10:30:00
5:49 AM,33.8,32.0,93,30.14,1.5,ENE,4.6,-,0.00,,Overcast,60,2014-01-05 10:49:00
5:51 AM,34.0,32.0,92,30.17,1.5,ENE,3.5,-,0.00,,Overcast,60,2014-01-05 10:51:00
5:59 AM,33.8,32.0,93,30.14,1.0,ENE,3.5,-,N/A,,Overcast,70,2014-01-05 10:59:00
6:13 AM,33.8,32.0,93,30.14,0.8,ENE,4.6,-,N/A,,Overcast,60,2014-01-05 11:13:00
6:24 AM,33.8,32.0,93,30.13,0.5,NE,3.5,-,N/A,Fog,Fog,50,2014-01-05 11:24:00
6:51 AM,34.0,33.1,96,30.16,0.5,Calm,Calm,-,N/A,Fog,Fog,0,2014-01-05 11:51:00
7:51 AM,34.0,33.1,96,30.16,0.2,Calm,Calm,-,N/A,Fog,Fog,0,2014-01-05 12:51:00
8:51 AM,35.1,34.0,96,30.16,0.2,Calm,Calm,-,0.00,Fog,Fog,0,2014-01-05 13:51:00
9:51 AM,35.1,34.0,96,30.15,0.5,NE,3.5,-,N/A,Fog,Fog,50,2014-01-05 14:51:00
10:23 AM,35.6,35.6,100,30.13,0.8,East,3.5,-,N/A,,Overcast,100,2014-01-05 15:23:00
10:33 AM,35.6,35.6,100,30.13,0.5,Variable,3.5,-,N/A,Fog,Fog,0,2014-01-05 15:33:00
10:51 AM,36.0,35.1,97,30.15,0.5,East,3.5,-,N/A,Fog,Fog,100,2014-01-05 15:51:00
11:22 AM,37.4,35.6,93,30.11,0.8,Calm,Calm,-,N/A,,Overcast,0,2014-01-05 16:22:00
11:37 AM,37.4,35.6,93,30.09,0.5,Calm,Calm,-,N/A,Fog,Fog,0,2014-01-05 16:37:00
11:51 AM,37.9,37.0,97,30.11,0.5,Calm,Calm,-,N/A,Fog,Fog,0,2014-01-05 16:51:00
12:26 PM,37.4,37.4,100,30.06,0.8,Calm,Calm,-,N/A,,Overcast,0,2014-01-05 17:26:00
12:36 PM,39.2,37.4,93,30.05,1.2,Calm,Calm,-,N/A,,Overcast,0,2014-01-05 17:36:00
12:51 PM,39.0,37.9,96,30.04,1.0,East,4.6,-,N/A,,Overcast,90,2014-01-05 17:51:00
1:51 PM,39.9,39.0,97,30.02,2.0,Calm,Calm,-,N/A,,Overcast,0,2014-01-05 18:51:00
2:34 PM,41.0,39.2,93,29.98,1.8,ESE,4.6,-,N/A,,Overcast,110,2014-01-05 19:34:00
2:43 PM,41.0,39.2,93,29.98,2.0,ESE,3.5,-,N/A,,Overcast,120,2014-01-05 19:43:00
2:51 PM,41.0,39.0,93,30.00,1.8,ESE,4.6,-,N/A,,Overcast,110,2014-01-05 19:51:00
3:08 PM,41.0,39.2,93,29.97,2.0,East,5.8,-,N/A,,Overcast,100,2014-01-05 20:08:00
3:51 PM,42.1,39.0,89,29.98,2.5,East,3.5,-,N/A,,Overcast,90,2014-01-05 20:51:00
4:02 PM,42.8,39.2,87,29.96,2.5,ESE,3.5,-,N/A,,Overcast,110,2014-01-05 21:02:00
4:14 PM,42.8,39.2,87,29.97,3.0,SE,4.6,-,N/A,,Overcast,140,2014-01-05 21:14:00
4:51 PM,41.0,39.0,93,29.98,3.0,Calm,Calm,-,N/A,,Overcast,0,2014-01-05 21:51:00
5:36 PM,41.0,39.2,93,29.95,3.0,Calm,Calm,-,N/A,,Overcast,0,2014-01-05 22:36:00
5:51 PM,41.0,39.0,93,29.97,4.0,Calm,Calm,-,N/A,,Overcast,0,2014-01-05 22:51:00
5:58 PM,41.0,39.2,93,29.94,4.0,Calm,Calm,-,N/A,,Overcast,0,2014-01-05 22:58:00
6:51 PM,41.0,39.0,93,29.94,4.0,NE,3.5,-,N/A,,Overcast,50,2014-01-05 23:51:00
7:27 PM,41.0,39.2,93,29.92,2.5,Calm,Calm,-,0.00,Rain,Light Rain,0,2014-01-06 00:27:00
7:40 PM,41.0,39.2,93,29.93,2.0,Calm,Calm,-,0.00,Rain,Light Rain,0,2014-01-06 00:40:00
7:47 PM,41.0,39.2,93,29.92,1.5,Calm,Calm,-,0.01,Rain,Light Rain,0,2014-01-06 00:47:00
7:51 PM,41.0,39.9,96,29.93,1.5,Calm,Calm,-,0.01,Rain,Light Rain,0,2014-01-06 00:51:00
8:11 PM,41.0,39.2,93,29.91,1.8,SE,3.5,-,0.02,Rain,Light Rain,140,2014-01-06 01:11:00
8:19 PM,41.0,39.2,93,29.90,2.0,SE,3.5,-,0.02,Rain,Light Rain,130,2014-01-06 01:19:00
8:41 PM,41.0,39.2,93,29.89,2.5,SE,4.6,-,0.02,,Overcast,140,2014-01-06 01:41:00
8:51 PM,41.0,39.9,96,29.90,2.5,SE,4.6,-,0.02,,Overcast,140,2014-01-06 01:51:00
9:11 PM,41.0,39.2,93,29.88,3.0,Calm,Calm,-,N/A,,Overcast,0,2014-01-06 02:11:00
9:46 PM,41.0,39.2,93,29.85,2.0,ESE,5.8,-,N/A,,Overcast,120,2014-01-06 02:46:00
9:51 PM,41.0,39.9,96,29.86,2.0,SE,4.6,-,N/A,,Overcast,130,2014-01-06 02:51:00
9:58 PM,41.0,39.2,93,29.84,2.0,SE,5.8,-,N/A,,Overcast,130,2014-01-06 02:58:00
10:51 PM,43.0,42.1,97,29.82,3.0,Variable,3.5,-,N/A,,Overcast,0,2014-01-06 03:51:00
11:07 PM,44.6,42.8,93,29.80,3.0,Calm,Calm,-,N/A,,Overcast,0,2014-01-06 04:07:00
11:22 PM,44.6,42.8,93,29.79,1.8,South,5.8,-,N/A,,Overcast,180,2014-01-06 04:22:00
11:34 PM,44.6,44.6,100,29.78,1.0,Variable,4.6,-,N/A,,Overcast,0,2014-01-06 04:34:00
11:48 PM,44.6,44.6,100,29.77,0.8,Calm,Calm,-,N/A,,Overcast,0,2014-01-06 04:48:00
11:51 PM,45.0,44.1,97,29.79,0.8,SSW,4.6,-,N/A,,Mist,210,2014-01-06 04:51:00
11:58 PM,44.6,44.6,100,29.77,0.5,South,4.6,-,N/A,Fog,Fog,190,2014-01-06 04:58:00